DW6022 Weather Reports


time (UTC)temp
C
wind
direction
speed
KPH
gust
KPH
rain 1hr
cm
rain 24hr
cm
rain mn
cm
humidity
%
barometer
mb
20260503053155 15 17 3.2 4.8 0.00 0.00 0.00 64 1019.4
20260503052712 14 5 3.2 4.8 0.00 0.00 0.00 64 1019.4
20260503052200 14 5 3.2 4.8 0.00 0.00 0.00 65 1019.4
20260503051730 13 5 1.6 4.8 0.00 0.00 0.00 65 1019.4
20260503051209 13 5 1.6 4.8 0.00 0.00 0.00 64 1019.4
20260503050708 13 5 0.0 4.8 0.00 0.00 0.00 65 1019.4
20260503050204 13 5 1.6 6.4 0.00 0.00 0.00 65 1019.3
20260503045704 13 5 3.2 6.4 0.00 0.00 0.00 65 1019.3
20260503045207 13 360 3.2 6.4 0.00 0.00 0.00 65 1019.4
20260503044706 13 355 3.2 6.4 0.00 0.00 0.00 65 1019.3
20260503044226 13 355 3.2 6.4 0.00 0.00 0.00 65 1019.3
20260503043707 13 355 3.2 4.8 0.00 0.00 0.00 65 1019.3
20260503043155 13 355 0.0 0.0 0.00 0.00 0.00 65 1019.2
20260503042659 13 355 0.0 0.0 0.00 0.00 0.00 65 1019.2
20260503042156 13 355 0.0 1.6 0.00 0.00 0.00 65 1019.2
20260503041653 13 355 0.0 4.8 0.00 0.00 0.00 64 1019.2
20260503041223 13 355 3.2 4.8 0.00 0.00 0.00 64 1019.2
20260503040723 13 355 0.0 0.0 0.00 0.00 0.00 63 1019.2
20260503040209 13 355 0.0 0.0 0.00 0.00 0.00 62 1019.2
20260503035709 13 355 0.0 4.8 0.00 0.00 0.00 62 1019.2
20260503035212 13 355 1.6 4.8 0.00 0.00 0.00 62 1019.1
20260503034709 13 355 3.2 4.8 0.00 0.00 0.00 62 1019.1
20260503034229 13 355 1.6 4.8 0.00 0.00 0.00 62 1019.2
20260503033712 13 355 1.6 4.8 0.00 0.00 0.00 62 1019.1
20260503033159 13 355 3.2 6.4 0.00 0.00 0.00 62 1019.2
20260503032731 13 355 4.8 6.4 0.00 0.00 0.00 62 1019.2
20260503032213 13 355 3.2 6.4 0.00 0.00 0.00 63 1019.2
20260503031732 13 355 3.2 6.4 0.00 0.00 0.00 62 1019.2
20260503031228 13 355 3.2 4.8 0.00 0.00 0.00 62 1019.2
20260503030708 13 355 0.0 0.0 0.00 0.00 0.00 61 1019.3
20260503030212 13 355 0.0 0.0 0.00 0.00 0.00 61 1019.3
20260503025706 13 355 0.0 0.0 0.00 0.00 0.00 61 1019.3
20260503025226 13 355 0.0 0.0 0.00 0.00 0.00 61 1019.3
20260503024702 13 355 0.0 0.0 0.00 0.00 0.00 60 1019.3
20260503024157 13 355 0.0 0.0 0.00 0.00 0.00 60 1019.3
20260503023733 13 355 0.0 0.0 0.00 0.00 0.00 60 1019.3
20260503023159 14 355 0.0 0.0 0.00 0.00 0.00 60 1019.3
20260503022714 14 355 0.0 0.0 0.00 0.00 0.00 60 1019.4
20260503022211 14 355 0.0 0.0 0.00 0.00 0.00 60 1019.4
20260503021706 13 355 0.0 0.0 0.00 0.00 0.00 61 1019.4
20260503021225 13 355 0.0 0.0 0.00 0.00 0.00 61 1019.5
20260503020702 13 355 0.0 0.0 0.00 0.00 0.00 62 1019.6
20260503020207 13 355 0.0 0.0 0.00 0.00 0.00 62 1019.6
20260503015722 13 355 0.0 0.0 0.00 0.00 0.00 62 1019.7
20260503015201 13 355 0.0 0.0 0.00 0.00 0.00 61 1019.6
20260503014653 13 355 0.0 0.0 0.00 0.00 0.00 61 1019.7
20260503014211 13 355 0.0 0.0 0.00 0.00 0.00 63 1019.7
20260503013710 13 355 0.0 0.0 0.00 0.00 0.00 63 1019.7
20260503013154 13 355 0.0 0.0 0.00 0.00 0.00 63 1019.7
20260503012712 13 355 0.0 0.0 0.00 0.00 0.00 63 1019.8
20260503012208 13 355 0.0 0.0 0.00 0.00 0.00 64 1019.8
20260503011729 13 355 0.0 0.0 0.00 0.00 0.00 64 1019.8
20260503011204 13 355 0.0 0.0 0.00 0.00 0.00 64 1019.8
20260503010723 13 355 0.0 0.0 0.00 0.00 0.00 63 1019.9
20260503010205 13 355 0.0 0.0 0.00 0.00 0.00 63 1020.0
20260503005704 13 355 0.0 0.0 0.00 0.00 0.00 63 1020.0
20260503005206 13 355 0.0 0.0 0.00 0.00 0.00 63 1020.1
20260503004719 13 355 0.0 0.0 0.00 0.00 0.00 63 1020.1
20260503004154 13 355 0.0 0.0 0.00 0.00 0.00 62 1020.2
20260503003728 13 355 0.0 0.0 0.00 0.00 0.00 61 1020.3
20260503003209 13 355 0.0 0.0 0.00 0.00 0.00 62 1020.3
20260503002705 13 355 0.0 0.0 0.00 0.00 0.00 61 1020.3
20260503002208 13 355 0.0 0.0 0.00 0.00 0.00 62 1020.4
20260503001708 13 355 0.0 0.0 0.00 0.00 0.00 62 1020.4
20260503001210 13 355 0.0 0.0 0.00 0.00 0.00 61 1020.5
20260503000705 13 355 0.0 0.0 0.00 0.00 0.00 60 1020.5
20260503000158 13 355 0.0 0.0 0.00 0.00 0.00 62 1020.6
20260502235713 13 355 0.0 0.0 0.00 0.00 0.00 60 1020.7
20260502235212 13 355 0.0 0.0 0.00 0.00 0.00 59 1020.7
20260502234707 13 355 0.0 0.0 0.00 0.00 0.00 58 1020.9
20260502234201 13 355 0.0 0.0 0.00 0.00 0.00 59 1020.9
20260502233706 14 355 0.0 0.0 0.00 0.00 0.00 58 1020.9
20260502233209 14 355 0.0 0.0 0.00 0.00 0.00 57 1020.9
20260502232700 14 355 0.0 0.0 0.00 0.00 0.00 57 1020.9
20260502232159 14 355 0.0 0.0 0.00 0.00 0.00 58 1020.9
20260502231708 14 355 0.0 0.0 0.00 0.00 0.00 58 1020.9
20260502231212 14 355 0.0 3.2 0.00 0.00 0.00 58 1021.0
20260502230158 14 355 3.2 4.8 0.00 0.00 0.00 57 1021.0
20260502225712 14 355 0.0 3.2 0.00 0.00 0.00 58 1021.0
20260502225209 14 355 1.6 3.2 0.00 0.00 0.00 57 1021.0
20260502224707 14 355 1.6 3.2 0.00 0.00 0.00 56 1021.0
20260502224201 14 355 0.0 0.0 0.00 0.00 0.00 57 1021.0
20260502223700 14 355 0.0 0.0 0.00 0.00 0.00 57 1021.0
20260502223205 14 355 0.0 0.0 0.00 0.00 0.00 57 1021.0
20260502222727 14 355 0.0 0.0 0.00 0.00 0.00 56 1021.1
20260502222204 14 355 0.0 0.0 0.00 0.00 0.00 55 1021.1
20260502221714 15 355 0.0 0.0 0.00 0.00 0.00 56 1021.1
20260502221213 15 355 0.0 0.0 0.00 0.00 0.00 54 1021.2
20260502220658 15 355 0.0 1.6 0.00 0.00 0.00 53 1021.2
20260502220208 15 355 0.0 1.6 0.00 0.00 0.00 53 1021.2
20260502215656 15 351 0.0 0.0 0.00 0.00 0.00 52 1021.2
20260502215213 15 351 0.0 0.0 0.00 0.00 0.00 51 1021.2
20260502214707 15 351 0.0 0.0 0.00 0.00 0.00 50 1021.2
20260502214209 15 351 0.0 0.0 0.00 0.00 0.00 50 1021.2
20260502213707 15 355 0.0 6.4 0.00 0.00 0.00 50 1021.2
20260502213207 16 355 3.2 6.4 0.00 0.00 0.00 49 1021.1
20260502212702 16 355 1.6 4.8 0.00 0.00 0.00 49 1021.2
20260502212159 16 355 3.2 6.4 0.00 0.00 0.00 49 1021.2
20260502211710 16 355 3.2 6.4 0.00 0.00 0.00 49 1021.2
20260502211209 16 355 3.2 6.4 0.00 0.00 0.00 48 1021.2
20260502210704 16 355 3.2 6.4 0.00 0.00 0.00 49 1021.2
20260502210209 16 355 4.8 6.4 0.00 0.00 0.00 48 1021.2
20260502205656 16 355 4.8 6.4 0.00 0.00 0.00 48 1021.2
20260502205214 16 355 4.8 6.4 0.00 0.00 0.00 48 1021.2
20260502204709 16 355 3.2 6.4 0.00 0.00 0.00 49 1021.2
20260502204204 16 355 1.6 4.8 0.00 0.00 0.00 49 1021.1
20260502203701 16 355 1.6 4.8 0.00 0.00 0.00 48 1021.1
20260502203206 16 355 3.2 4.8 0.00 0.00 0.00 49 1021.1
20260502202658 16 355 3.2 6.4 0.00 0.00 0.00 48 1021.1
20260502202158 16 355 3.2 6.4 0.00 0.00 0.00 48 1021.1
20260502201711 16 355 3.2 8.0 0.00 0.00 0.00 48 1021.2
20260502201213 16 351 4.8 8.0 0.00 0.00 0.00 48 1021.2
20260502200706 16 350 3.2 6.4 0.00 0.00 0.00 48 1021.2
20260502200235 16 350 3.2 6.4 0.00 0.00 0.00 48 1021.2
20260502195704 16 350 3.2 6.4 0.00 0.00 0.00 48 1021.1
20260502195220 16 350 3.2 6.4 0.00 0.00 0.00 47 1021.2
20260502194715 16 349 4.8 6.4 0.00 0.00 0.00 47 1021.2
20260502194217 16 349 4.8 6.4 0.00 0.00 0.00 47 1021.2
20260502193659 16 349 4.8 6.4 0.00 0.00 0.00 47 1021.2
20260502193201 16 348 4.8 6.4 0.00 0.00 0.00 47 1021.1
20260502192654 16 348 4.8 8.0 0.00 0.00 0.00 47 1021.1
20260502192213 16 348 4.8 8.0 0.00 0.00 0.00 47 1021.1
20260502191733 16 341 4.8 6.4 0.00 0.00 0.00 47 1021.0
20260502191201 16 340 3.2 6.4 0.00 0.00 0.00 47 1021.0
20260502190656 16 340 4.8 6.4 0.00 0.00 0.00 46 1021.0
20260502190224 16 340 4.8 6.4 0.00 0.00 0.00 46 1021.0
20260502185657 17 338 4.8 6.4 0.00 0.00 0.00 45 1021.0
20260502185232 17 330 4.8 6.4 0.00 0.00 0.00 45 1021.0
20260502184658 17 330 4.8 6.4 0.00 0.00 0.00 45 1021.0
20260502184156 17 329 4.8 6.4 0.00 0.00 0.00 45 1021.0
20260502183700 17 323 3.2 6.4 0.00 0.00 0.00 45 1020.9
20260502183229 17 323 4.8 6.4 0.00 0.00 0.00 44 1020.9
20260502182700 17 323 4.8 8.0 0.00 0.00 0.00 43 1020.8
20260502182155 17 322 4.8 8.0 0.00 0.00 0.00 44 1020.7
20260502181735 17 322 6.4 8.0 0.00 0.00 0.00 44 1020.7
20260502181205 18 321 6.4 8.0 0.00 0.00 0.00 43 1020.7
20260502180707 18 318 6.4 8.0 0.00 0.00 0.00 44 1020.7
20260502180209 18 317 6.4 8.0 0.00 0.00 0.00 43 1020.6
20260502170211 21 290 3.2 6.4 0.00 0.00 0.00 34 1020.6
20260502164205 21 275 4.8 9.7 0.00 0.00 0.00 33 1020.6
20260502163722 21 276 6.4 11.3 0.00 0.00 0.00 34 1020.8
20260502163203 21 252 6.4 11.3 0.00 0.00 0.00 34 1020.8
20260502162656 21 292 3.2 9.7 0.00 0.00 0.00 35 1020.9
20260502162211 22 292 4.8 9.7 0.00 0.00 0.00 35 1020.9
20260502161723 21 273 4.8 11.3 0.00 0.00 0.00 35 1020.9
20260502161201 21 265 4.8 11.3 0.00 0.00 0.00 34 1020.9
20260502160709 21 263 8.0 11.3 0.00 0.00 0.00 34 1021.0
20260502160234 22 262 6.4 9.7 0.00 0.00 0.00 34 1021.0
20260502152222 21 297 4.8 8.0 0.00 0.00 0.00 33 1021.4
20260502151657 21 275 4.8 9.7 0.00 0.00 0.00 34 1021.4
20260502151157 21 290 4.8 14.5 0.00 0.00 0.00 34 1021.5
20260502150656 21 261 9.7 14.5 0.00 0.00 0.00 33 1021.5
20260502150219 21 315 6.4 11.3 0.00 0.00 0.00 35 1021.5
20260502130706 20 250 8.0 12.9 0.00 0.00 0.00 37 1023.0
20260502130159 20 248 6.4 12.9 0.00 0.00 0.00 38 1023.1
20260502123703 20 246 9.7 16.1 0.00 0.00 0.00 39 1023.5
20260502123154 20 243 6.4 14.5 0.00 0.00 0.00 40 1023.5
20260502122708 20 259 6.4 16.1 0.00 0.00 0.00 42 1023.6
20260502122202 19 285 8.0 16.1 0.00 0.00 0.00 40 1023.8
20260502121701 20 260 8.0 17.7 0.00 0.00 0.00 42 1023.7
20260502121204 19 272 11.3 17.7 0.00 0.00 0.00 42 1023.8
20260502120723 19 259 8.0 16.1 0.00 0.00 0.00 43 1023.8
20260502120203 18 259 8.0 16.1 0.00 0.00 0.00 43 1023.8
20260502115726 18 259 8.0 16.1 0.00 0.00 0.00 42 1023.9
20260502115205 19 244 9.7 12.9 0.00 0.00 0.00 42 1024.0
20260502114707 19 286 9.7 14.5 0.00 0.00 0.00 43 1024.1
20260502114228 19 300 6.4 16.1 0.00 0.00 0.00 43 1024.1
20260502113704 18 254 11.3 16.1 0.00 0.00 0.00 43 1024.1
20260502113208 18 245 8.0 14.5 0.00 0.00 0.00 43 1024.2
20260502112706 19 261 8.0 14.5 0.00 0.00 0.00 42 1024.4
20260502112202 18 275 3.2 14.5 0.00 0.00 0.00 43 1024.4
20260502111719 18 258 9.7 16.1 0.00 0.00 0.00 42 1024.5
20260502111212 18 254 8.0 16.1 0.00 0.00 0.00 44 1024.6
20260502110711 18 249 8.0 16.1 0.00 0.00 0.00 43 1024.7
20260502110159 18 255 6.4 14.5 0.00 0.00 0.00 44 1024.7
20260502105711 18 281 8.0 14.5 0.00 0.00 0.00 42 1024.8
20260502105210 18 277 9.7 16.1 0.00 0.00 0.00 42 1024.9
20260502104711 18 252 8.0 16.1 0.00 0.00 0.00 41 1025.0
20260502104229 18 257 8.0 12.9 0.00 0.00 0.00 40 1025.0
20260502103706 18 273 4.8 14.5 0.00 0.00 0.00 42 1025.2
20260502103157 18 253 4.8 11.3 0.00 0.00 0.00 41 1025.2
20260502102712 18 292 6.4 11.3 0.00 0.00 0.00 43 1025.3
20260502102206 17 252 8.0 16.1 0.00 0.00 0.00 42 1025.3
20260502101700 18 250 8.0 14.5 0.00 0.00 0.00 43 1025.4
20260502101153 17 261 8.0 14.5 0.00 0.00 0.00 43 1025.5
20260502100711 17 250 8.0 14.5 0.00 0.00 0.00 44 1025.5
20260502100156 17 252 4.8 16.1 0.00 0.00 0.00 46 1025.5
20260502091213 17 305 4.8 11.3 0.00 0.00 0.00 52 1026.0
20260502090705 17 296 6.4 11.3 0.00 0.00 0.00 51 1026.0
20260502090211 16 275 6.4 11.3 0.00 0.00 0.00 53 1026.0
20260502071158 15 125 3.2 6.4 0.00 0.00 0.00 65 1026.4
20260502070703 15 125 4.8 6.4 0.00 0.00 0.00 65 1026.5
20260502070207 14 124 1.6 6.4 0.00 0.00 0.00 67 1026.5
20260502065724 14 123 1.6 8.0 0.00 0.00 0.00 67 1026.4
20260502065223 14 124 4.8 8.0 0.00 0.00 0.00 67 1026.4
20260502064731 13 112 3.2 8.0 0.00 0.00 0.00 68 1026.4
20260502064211 13 107 0.0 8.0 0.00 0.00 0.00 68 1026.4
20260502063654 13 83 1.6 9.7 0.00 0.00 0.00 67 1026.4
20260502063212 13 61 1.6 4.8 0.00 0.00 0.00 69 1026.4
20260502062659 13 60 0.0 4.8 0.00 0.00 0.00 71 1026.4
20260502062200 13 59 1.6 4.8 0.00 0.00 0.00 71 1026.4
20260502061157 12 59 0.0 4.8 0.00 0.00 0.00 73 1026.4
20260502060706 12 57 0.0 0.0 0.00 0.00 0.00 73 1026.4
20260502060210 12 57 0.0 0.0 0.00 0.00 0.00 73 1026.4
20260502055728 12 57 0.0 0.0 0.00 0.00 0.00 74 1026.4
20260502055204 12 57 0.0 0.0 0.00 0.00 0.00 74 1026.4
20260502054707 12 57 0.0 0.0 0.00 0.00 0.00 74 1026.4
20260502054201 11 57 0.0 0.0 0.00 0.00 0.00 73 1026.4
20260502053703 11 57 0.0 0.0 0.00 0.00 0.00 73 1026.4